SKYSAT-C7

Last updated on Thu Sep 24 2026 00:03:04 GMT+0000 (Coordinated Universal Time)

1 42991U 17068E 26266.31826776 .00007675 00000+0 20326-3 0 9999 2 42991 97.4660 45.4992 0006896 111.8743 248.3236 15.38630041497454
UTC large
Height (km)
Speed (km/s)
/
Latitude / Longitude
Inclination (degrees)
Orbital Period (minutes)
Azimuth
Elevation
Range (km)
Doppler Factor

Next 0 passes for location: London (51.5072 / 0.1276)

No passes found over London.
SKYSAT-C7